Odessa, TX

6:19 AM CST on November 22, 2017 (GMT -0600)
Odessa-Schlemeyer

Weather History for KODO - June, 2013

Change the Weather History Date:

Sunday, June 9, 2013

  Actual Average (KMAF) Record (KMAF)
Temperature  
Mean Temperature 81 °F -  
Max Temperature 93 °F 90 °F 106 °F (1994)
Min Temperature 69 °F 65 °F 55 °F (1955)
Cooling Degree Days 16    
Growing Degree Days 31 (Base 50)    
Moisture  
Dew Point 59 °F    
Average Humidity 53    
Maximum Humidity 87    
Minimum Humidity 21    
Precipitation  
Precipitation 0.00 in - - ()
Sea Level Pressure  
Sea Level Pressure 29.81 in    
Wind  
Wind Speed 16 mph (SE)    
Max Wind Speed 24 mph    
Max Gust Speed 36 mph    
Visibility 10 miles    
Events Rain , Thunderstorm    
Averages and records for this station are not official NWS values.
T = Trace of Precipitation, MM = Missing Value Source: NWS Daily Summary

Daily Weather History Graph

Daily Weather History Graph

Search for Another Location

Airport or City:

Trip Planner

Search our weather history database for the weather conditions in past years. The results will help you decide how hot, cold, wet, or windy it might be!

Date:

Astronomy

Jun. 09, 2013 Rise Set
Actual Time 6:43 AM CDT 8:54 PM CDT
Civil Twilight 6:15 AM CDT 9:22 PM CDT
Nautical Twilight 5:40 AM CDT 9:57 PM CDT
Astronomical Twilight 5:03 AM CDT 10:34 PM CDT
Moon 7:38 AM CDT (6/9) 9:47 PM CDT (6/9)
Length of Visible Light 15h 07m
Length of Day
14h 11m
New Moon, 1% of the Moon is Illuminated
Jun 9
New Moon
Jun 16
First Quarter
Jun 23
Full
Jun 29
Last Quarter
Jul 8
New

Hourly Weather History & Observations

Time (CDT) Temp. Heat Index Dew Point Humidity Pressure Visibility Wind Dir Wind Speed Gust Speed Precip Events Conditions
12:53 AM 78.1 °F - 63.0 °F 60% 29.70 in 10.0 mi SSE 15.0 mph 24.2 mph N/A   Clear
1:53 AM 77.0 °F - 63.0 °F 62% 29.76 in 10.0 mi Variable 6.9 mph - 0.00 in Rain , Thunderstorm Light Thunderstorms and Rain
2:17 AM 75.2 °F - 64.4 °F 69% 29.84 in 10.0 mi SSE 23.0 mph 29.9 mph 0.00 in Rain , Thunderstorm Light Thunderstorms and Rain
2:27 AM 75.2 °F - 64.4 °F 69% 29.83 in 10.0 mi South 18.4 mph 31.1 mph 0.00 in   Partly Cloudy
2:53 AM 77.0 °F - 63.0 °F 62% 29.68 in 10.0 mi South 15.0 mph 24.2 mph 0.00 in   Clear
3:53 AM 73.9 °F - 64.0 °F 71% 29.68 in 10.0 mi SE 17.3 mph - N/A   Clear
4:53 AM 73.9 °F - 64.0 °F 71% 29.70 in 10.0 mi ESE 15.0 mph - N/A   Clear
5:53 AM 73.0 °F - 66.0 °F 79% 29.73 in 10.0 mi East 12.7 mph - 0.00 in Rain Light Rain
6:53 AM 71.1 °F - 66.0 °F 84% 29.79 in 10.0 mi East 20.7 mph 28.8 mph 0.00 in   Partly Cloudy
7:53 AM 69.1 °F - 64.9 °F 87% 29.80 in 10.0 mi ESE 23.0 mph 35.7 mph N/A   Scattered Clouds
8:05 AM 69.8 °F - 64.4 °F 83% 29.94 in 10.0 mi ESE 20.7 mph 29.9 mph N/A   Mostly Cloudy
8:16 AM 71.6 °F - 66.2 °F 83% 29.94 in 10.0 mi SE 24.2 mph 33.4 mph N/A   Scattered Clouds
8:53 AM 73.9 °F - 64.0 °F 71% 29.81 in 10.0 mi SE 18.4 mph 25.3 mph N/A   Clear
9:53 AM 77.0 °F - 64.0 °F 64% 29.83 in 10.0 mi ESE 17.3 mph 26.5 mph N/A   Clear
10:53 AM 80.1 °F 81.5 °F 63.0 °F 56% 29.83 in 10.0 mi ESE 16.1 mph - N/A   Clear
11:53 AM 82.0 °F 83.1 °F 63.0 °F 52% 29.85 in 10.0 mi ESE 12.7 mph - N/A   Clear
12:53 PM 87.1 °F 85.7 °F 55.9 °F 35% 29.85 in 10.0 mi SSE 15.0 mph 25.3 mph N/A   Clear
1:53 PM 90.0 °F - 51.1 °F 26% 29.83 in 10.0 mi ESE 16.1 mph - N/A   Clear
2:53 PM 91.0 °F - 52.0 °F 26% 29.83 in 10.0 mi ESE 15.0 mph 21.9 mph N/A   Clear
3:53 PM 93.0 °F - 52.0 °F 25% 29.82 in 10.0 mi ESE 12.7 mph - N/A   Clear
4:53 PM 91.0 °F - 51.1 °F 25% 29.81 in 10.0 mi ESE 15.0 mph 23.0 mph N/A   Clear
5:53 PM 93.0 °F - 48.9 °F 22% 29.80 in 10.0 mi East 13.8 mph - N/A   Clear
6:53 PM 91.0 °F - 50.0 °F 24% 29.81 in 10.0 mi ESE 15.0 mph - N/A   Clear
7:53 PM 89.1 °F - 44.1 °F 21% 29.82 in 10.0 mi ESE 11.5 mph - N/A   Clear
8:53 PM 86.0 °F - 46.0 °F 25% 29.85 in 10.0 mi ESE 11.5 mph - N/A   Clear
9:53 PM 84.0 °F - 52.0 °F 33% 29.86 in 10.0 mi ESE 12.7 mph - N/A   Clear
10:53 PM 81.0 °F 80.8 °F 55.9 °F 42% 29.89 in 10.0 mi ESE 13.8 mph - N/A   Clear
11:53 PM 79.0 °F - 57.0 °F 47% 29.90 in 10.0 mi ESE 12.7 mph - N/A   Clear